Voltar ao catálogo

DELTA 1 DEB

AtivoSSO
NORAD 2154·DEBRIS·🇺🇸 United States

Lançado Feb 3, 1966 de Cape Canaveral Space Force Station

Loading…

Próximas Passagens (próximas 24 horas)

TLE

AtualizadoSource: Space-Track

Época: Sep 14, 2026, 13:31 UTC

1 02154U 66008E   26257.56359697  .00000679  00000-0  11433-3 0  9991
2 02154  97.8819  10.9078 0046536  23.0637 337.2646 14.71964279192166

Acompanhe DELTA 1 DEB em tempo real com AllMySat

Download on the App Store